EW9013 Weather Reports


time (UTC)temp
C
wind
direction
speed
KPH
gust
KPH
rain 1hr
cm
rain 24hr
cm
rain mn
cm
humidity
%
barometer
mb
20260505060100 -17 0.0 0.0 0.00 0.05 0.00 1016.3
20260505054551 24 96 0.0 6.4 0.00 0.13 0.00 83 1016.4
20260505053046 24 108 1.6 6.4 0.00 0.13 0.00 83 1016.6
20260505051548 24 108 0.0 3.2 0.00 0.13 0.00 83 1016.6
20260505041550 25 93 1.6 8.0 0.00 0.13 0.00 83 1016.8
20260505040036 25 74 4.8 11.3 0.00 0.13 0.00 84 1017.0
20260505034534 25 77 4.8 9.7 0.00 0.13 0.13 84 1017.1
20260505033035 25 60 3.2 8.0 0.00 0.13 0.13 84 1017.3
20260505031534 25 89 3.2 6.4 0.00 0.13 0.13 84 1017.5
20260505030036 25 84 3.2 8.0 0.00 0.13 0.13 84 1017.7
20260505024533 25 65 3.2 16.1 0.00 0.13 0.13 82 1017.7
20260505023032 25 75 1.6 4.8 0.00 0.13 0.13 80 1017.7
20260505021533 26 89 3.2 6.4 0.00 0.13 0.13 80 1017.8
20260505020039 25 103 0.0 4.8 0.00 0.13 0.13 80 1017.7
20260505014543 25 113 1.6 4.8 0.00 0.13 0.13 80 1017.6
20260505013038 25 73 3.2 8.0 0.00 0.13 0.13 80 1017.5
20260505011535 25 64 3.2 8.0 0.00 0.13 0.13 80 1017.1
20260505010028 25 100 1.6 8.0 0.00 0.13 0.13 80 1016.9
20260505004540 26 88 1.6 8.0 0.00 0.13 0.13 80 1016.7
20260505003048 26 106 0.0 8.0 0.00 0.13 0.13 80 1016.6
20260505001527 26 107 0.0 8.0 0.00 0.13 0.13 80 1016.5
20260505000031 26 108 1.6 9.7 0.00 0.13 0.13 80 1016.4
20260504234525 26 70 3.2 8.0 0.00 0.13 0.13 79 1016.4
20260504233024 26 75 3.2 8.0 0.00 0.13 0.13 79 1016.1
20260504231523 26 115 1.6 9.7 0.00 0.13 0.13 77 1016.0
20260504230023 26 102 3.2 9.7 0.00 0.13 0.13 77 1015.8
20260504224522 26 68 1.6 12.9 0.00 0.13 0.13 77 1015.7
20260504223023 26 120 4.8 14.5 0.00 0.13 0.13 76 1015.5
20260504221522 27 87 1.6 17.7 0.00 0.13 0.13 76 1015.4
20260504220020 27 110 4.8 12.9 0.00 0.13 0.13 76 1015.4
20260504214522 27 99 4.8 19.3 0.00 0.13 0.13 74 1015.2
20260504213025 27 127 6.4 20.9 0.00 0.13 0.13 73 1015.1
20260504211529 27 106 3.2 16.1 0.00 0.13 0.13 74 1015.0
20260504210017 28 87 6.4 19.3 0.00 0.13 0.13 72 1014.9
20260504204519 28 89 6.4 17.7 0.03 0.13 0.13 72 1014.8
20260504203016 28 138 8.0 19.3 0.03 0.13 0.13 72 1014.8
20260504201514 28 109 4.8 17.7 0.03 0.13 0.13 72 1014.8
20260504200013 28 105 4.8 17.7 0.03 0.13 0.13 72 1014.9
20260504194512 28 97 3.2 17.7 0.00 0.10 0.10 72 1015.0
20260504193012 27 102 6.4 22.5 0.00 0.10 0.10 72 1014.9
20260504191511 27 88 4.8 12.9 0.00 0.10 0.10 74 1015.0
20260504190008 28 8 6.4 19.3 0.00 0.10 0.10 70 1015.1
20260504184506 30 80 6.4 25.7 0.00 0.10 0.10 67 1015.3
20260504183009 30 156 8.0 19.3 0.00 0.10 0.10 66 1015.4
20260504181505 28 30 3.2 16.1 0.00 0.10 0.10 71 1015.7
20260504180002 28 99 6.4 30.6 0.00 0.10 0.10 69 1016.2
20260504174604 30 63 4.8 14.5 0.00 0.10 0.10 66 1015.9
20260504173059 31 91 6.4 19.3 0.00 0.10 0.10 66 1016.1
20260504171556 30 27 4.8 20.9 0.00 0.10 0.10 68 1016.2
20260504081527 -17 0.0 0.0 0.00 0.05 0.05 1015.8